This is the latest recevied weather packets stored in our database for station/object N3LF. If no packets are shown the sender has not sent any weather packets the latest 10 day(s).
| Time | Temp. | Humidity | Pressure | Rain* | Wind** | Luminosity | Snow |
|---|---|---|---|---|---|---|---|
| 1777232144 | 27.78° C | 46% | 1015.3 hPa | 0 mm | - | 666 W/m² | - |
| 1777231842 | 27.22° C | 46% | 1015.4 hPa | 0 mm | - | 496 W/m² | - |
| 1777231538 | 27.78° C | 46% | 1015.4 hPa | 0 mm | - | 162 W/m² | - |
| 1777231234 | 27.78° C | 44% | 1015.2 hPa | 0 mm | - | 723 W/m² | - |
| 1777230930 | 26.67° C | 49% | 1015.3 hPa | 0 mm | - | 733 W/m² | - |
| 1777230626 | 27.22° C | 46% | 1015.3 hPa | 0 mm | - | 141 W/m² | - |
| 1777230321 | 28.33° C | 43% | 1015.5 hPa | 0 mm | - | 251 W/m² | - |
| 1777230019 | 28.33° C | 45% | 1015.3 hPa | 0 mm | - | 736 W/m² | - |
| 1777229715 | 29.44° C | 43% | 1015.2 hPa | 0 mm | - | 747 W/m² | - |
| 1777229412 | 27.78° C | 42% | 1015.2 hPa | 0 mm | - | 689 W/m² | - |
| 1777229109 | 27.22° C | 43% | 1015.4 hPa | 0 mm | - | 723 W/m² | - |
| 1777228806 | 27.22° C | 44% | 1015.4 hPa | 0 mm | - | 236 W/m² | - |
| 1777228501 | 27.78° C | 46% | 1015.5 hPa | 0 mm | - | 705 W/m² | - |
| 1777228197 | 27.78° C | 45% | 1015.4 hPa | 0 mm | - | 710 W/m² | - |
| 1777227896 | 28.33° C | 42% | 1015.6 hPa | 0 mm | - | 724 W/m² | - |
| 1777227593 | 27.78° C | 44% | 1015.7 hPa | 0 mm | - | 717 W/m² | - |
| 1777227288 | 27.22° C | 44% | 1015.5 hPa | 0 mm | - | 729 W/m² | - |
| 1777226986 | 27.22° C | 41% | 1015.7 hPa | 0 mm | - | 725 W/m² | - |
| 1777226684 | 27.22° C | 46% | 1015.7 hPa | 0 mm | - | 727 W/m² | - |
| 1777226380 | 26.67° C | 45% | 1016 hPa | 0 mm | - | 727 W/m² | - |
| 1777226076 | 27.78° C | 45% | 1015.9 hPa | 0 mm | - | 747 W/m² | - |
| 1777225772 | 28.33° C | 45% | 1015.9 hPa | 0 mm | - | 727 W/m² | - |
| 1777225469 | 27.78° C | 43% | 1016.2 hPa | 0 mm | - | 733 W/m² | - |
| 1777225166 | 26.67° C | 44% | 1016.1 hPa | 0 mm | - | 751 W/m² | - |
| 1777224863 | 26.67° C | 48% | 1016.3 hPa | 0 mm | - | 787 W/m² | - |
* Rain latest hour (hover to see other rain measurements)
** Current wind speed in m/s (hover to see current wind gust speed)